Location: *
(45.1961°N, 1.9694°E)
Time: 23:03:44
(UTC+00:00)

Cosmos 158 Rocket - Pass Details

Date: 25 August 2019
Orbit: 698 x 794 km, 74.0° (Epoch: 22 September)

Event Time Altitude Azimuth Distance (km) Brightness Sun altitude
Rises 19:50:24 0° 341° (NNW) 3,259 8.0 -11.8°
Reaches altitude 10° 19:52:49 10° 346° (NNW) 2,339 7.2 -12.2°
Maximum altitude 19:58:05 58° 65° (ENE) 915 4.2 -13.0°
Enters shadow 20:02:03 18° 141° (SE) 1,869 5.4 -13.6°
